Location: Aalen
(48.8330°N, 10.1000°E)
Time: 20:04:57
(UTC+02:00)

S-56A Canister/Altair - Pass Details

Date: 01 August 2021
Orbit: 632 x 2500 km, 38.9° (Epoch: 19 September)

Event Time Altitude Azimuth Distance (km) Brightness Sun altitude
Rises 15:02:51 0° 212° (SSW) 5,289 12.4 53.4°
Reaches altitude 10° 15:06:27 10° 203° (SSW) 4,524 12.2 53.0°
Maximum altitude 15:17:38 35° 145° (SE) 3,413 11.3 51.7°
Drops below altitude 10° 15:30:19 10° 88° (E) 5,153 11.5 50.1°
Sets 15:34:44 0° 81° (E) 6,096 11.8 49.6°
